This is the latest recevied weather packets stored in our database for station/object WE0DX-1. If no packets are shown the sender has not sent any weather packets the latest 10 day(s).
| Time | Temp. | Humidity | Pressure | Rain* | Wind** | Luminosity | Snow |
|---|---|---|---|---|---|---|---|
| 1777421164 | 15.56° C | 62% | 1013.7 hPa | 0 mm | - | 45 W/m² | - |
| 1777420861 | 15.56° C | 62% | 1013.5 hPa | 0 mm | - | 42 W/m² | - |
| 1777420557 | 15.56° C | 62% | 1013.4 hPa | 0 mm | - | 35 W/m² | - |
| 1777420253 | 15.56° C | 64% | 1013.4 hPa | 0 mm | - | 38 W/m² | - |
| 1777419949 | 15.56° C | 64% | 1013.2 hPa | 0 mm | - | 41 W/m² | - |
| 1777419646 | 15.56° C | 65% | 1013.4 hPa | 0 mm | - | 49 W/m² | - |
| 1777419344 | 15.56° C | 66% | 1013.2 hPa | 0 mm | - | 33 W/m² | - |
| 1777419043 | 15.56° C | 65% | 1013.5 hPa | 0 mm | - | 32 W/m² | - |
| 1777418742 | 15.56° C | 64% | 1013.4 hPa | 0 mm | - | 58 W/m² | - |
| 1777418440 | 15.56° C | 64% | 1013.3 hPa | 0 mm | - | 68 W/m² | - |
| 1777418136 | 15.56° C | 65% | 1013.1 hPa | 0 mm | - | 95 W/m² | - |
| 1777417832 | 15.56° C | 65% | 1013.1 hPa | 0 mm | - | 85 W/m² | - |
| 1777417532 | 16.11° C | 64% | 1013.2 hPa | 0 mm | - | 97 W/m² | - |
| 1777417229 | 15.56° C | 66% | 1013.2 hPa | 0 mm | - | 103 W/m² | - |
| 1777416925 | 15.56° C | 65% | 1013.3 hPa | 0 mm | - | 93 W/m² | - |
| 1777416620 | 15.56° C | 66% | 1013.3 hPa | 0 mm | - | 95 W/m² | - |
| 1777416317 | 15.56° C | 66% | 1013.2 hPa | 0 mm | - | 81 W/m² | - |
| 1777416015 | 15.56° C | 66% | 1013.2 hPa | 0 mm | - | 70 W/m² | - |
| 1777415712 | 15.56° C | 65% | 1013.4 hPa | 0 mm | - | 79 W/m² | - |
| 1777415408 | 15.56° C | 65% | 1013.2 hPa | 0 mm | - | 89 W/m² | - |
| 1777415107 | 15.56° C | 68% | 1013.3 hPa | 0 mm | - | 104 W/m² | - |
| 1777414803 | 15.56° C | 67% | 1013.3 hPa | 0 mm | - | 112 W/m² | - |
| 1777414498 | 15.56° C | 66% | 1013.3 hPa | 0 mm | - | 120 W/m² | - |
| 1777414197 | 15.56° C | 66% | 1013.2 hPa | 0 mm | - | 115 W/m² | - |
| 1777413893 | 15.56° C | 66% | 1013.3 hPa | 0 mm | - | 106 W/m² | - |
* Rain latest hour (hover to see other rain measurements)
** Current wind speed in m/s (hover to see current wind gust speed)